This demonstration page uses our WeatherBlox Daily Observations layout. Learn more.

41.55636, -103.73856

Hourly Observations for January 8, 2020

Temp ( °F °C ) Dew Point ( °F °C ) Humidity (%) Winds ( mph kmh ) Pressure ( in mb ) Visibility ( mi km ) Precip ( " mm )
12:58 am 00:58 Clear 33 0.6 24 -4.5 69 69 WSW 8 13 30.15 1021 10 16.0934 0 0
1:58 am 01:58 Clear 36 2.2 24 -4.6 61 61 SW 8 13 30.13 1020 10 16.0934 0 0
2:58 am 02:58 Clear 35 1.7 22 -5.4 60 60 SW 13 20 30.13 1020 10 16.0934 0 0
3:58 am 03:58 Clear 36 2.1 21 -6 55 55 WSW 10 17 30.11 1020 10 16.0934 0 0
4:58 am 04:58 Clear 38 3.5 20 -6.5 48 48 W 10 17 30.06 1018 10 16.0934 0 0
5:58 am 05:58 Clear 33 0.4 21 -6.3 61 61 SW 10 17 30.06 1018 10 16.0934 0 0
6:58 am 06:58 Mostly Cloudy 34 1.3 20 -6.8 55 55 SSW 12 19 30.02 1017 10 16.0934 0 0
7:58 am 07:58 Clear 32 0 19 -7.2 59 59 SSW 6 9 29.99 1016 10 16.0934 0 0
8:58 am 08:58 Clear 35 1.4 20 -6.7 55 55 S 3 6 29.96 1015 10 16.0934 0 0
9:58 am 09:58 Clear 32 -0.2 20 -6.6 62 62 S 6 9 29.94 1014 10 16.0934 0 0
10:58 am 10:58 Clear 35 1.7 19 -7.2 52 52 SSW 9 15 29.9 1013 10 16.0934 0 0
11:58 am 11:58 Clear 31 -0.5 19 -7.5 60 60 SW 7 11 29.91 1013 10 16.0934 0 0
12:58 pm 12:58 Partly Cloudy 34 1.2 17 -8.3 50 50 Calm 29.89 1012 10 16.0934 0 0
1:58 pm 13:58 Mostly Cloudy 35 1.5 18 -7.9 50 50 Calm 29.85 1011 10 16.0934 0 0
2:58 pm 14:58 Partly Cloudy 36 2.4 19 -7.2 50 50 SW 14 22 29.82 1010 10 16.0934 0 0
3:58 pm 15:58 Sunny 40 4.6 19 -7.3 42 42 SW 15 24 29.78 1008 10 16.0934 0 0
4:58 pm 16:58 Sunny 40 4.7 20 -6.8 43 43 SW 7 11 29.75 1007 10 16.0934 0 0
5:58 pm 17:58 Sunny 47 8.5 20 -6.8 33 33 S 9 15 29.7 1006 10 16.0934 0 0
6:58 pm 18:58 Sunny 52 10.9 17 -8.5 25 25 SSW 13 20 29.63 1003 10 16.0934 0 0
7:58 pm 19:58 Sunny 53 11.8 18 -8 24 24 SSW 17 28 29.6 1002 10 16.0934 0 0
8:58 pm 20:58 Sunny 51 10.8 22 -5.6 31 31 N 6 9 29.58 1002 10 16.0934 0 0
9:58 pm 21:58 Sunny 49 9.3 23 -4.9 37 37 SE 6 9 29.58 1002 10 16.0934 0 0
11:58 pm 23:58 Partly Cloudy 35 1.4 24 -4.4 66 66 ENE 9 15 29.64 1004 10 16.0934 0 0

Powered by AerisWeather